User: anonymous
Location: Allison's Woods
(35.8809°N, 80.8140°W)
Time: 00:54:03
(UTC-04:00)
Language:

Iridium 39 - Orbit

View from above orbital plane
View from above orbital plane
View from above satellite
View from above satellite

Ground track
Ground track

The orbit data is extracted from the following two-line orbital elements,

1 25042U 97069D   14258.42878893  .00000046  00000-0  92214-5 0  9637
2 25042 086.3918 082.5687 0002083 112.8107 247.3309 14.34215711882150
Epoch (UTC): 15 September 2014 10:17:27
Eccentricity: 0.0002083
inclination: 86.3918°
perigee height: 776 km
apogee height: 779 km
right ascension of ascending node: 82.5687°
argument of perigee: 112.8107°
revolutions per day: 14.34215711
mean anomaly at epoch: 247.3309°
orbit number at epoch: 88215

The dashed part of the orbit path shows where the satellite is in the earth's shadow,  

DLR